www.pogodaiklimat.ru
ПОГОДА в Эрнаже
Время
(UTC), дата
01 28.05
02 28.05
03 28.05
04 28.05
05 28.05
06 28.05
07 28.05
08 28.05
09 28.05
10 28.05
11 28.05
12 28.05
13 28.05
14 28.05
15 28.05
16 28.05
17 28.05
18 28.05
19 28.05
20 28.05
21 28.05
22 28.05
23 28.05
00 29.05
01 29.05
02 29.05
03 29.05
04 29.05
05 29.05
06 29.05
07 29.05
08 29.05
09 29.05
10 29.05
11 29.05
12 29.05
13 29.05
14 29.05
15 29.05
16 29.05
17 29.05
18 29.05
19 29.05
20 29.05
21 29.05
22 29.05
23 29.05
00 30.05
01 30.05
02 30.05
03 30.05
04 30.05
05 30.05
06 30.05
07 30.05
08 30.05
09 30.05
10 30.05
11 30.05
12 30.05
13 30.05
14 30.05
15 30.05
16 30.05
17 30.05
18 30.05
19 30.05
20 30.05
21 30.05
22 30.05
23 30.05
00 31.05
01 31.05
02 31.05
03 31.05
04 31.05
05 31.05
06 31.05
07 31.05
08 31.05
09 31.05
10 31.05
11 31.05
12 31.05
13 31.05
14 31.05
15 31.05
16 31.05
17 31.05
18 31.05
19 31.05
20 31.05
21 31.05
22 31.05
23 31.05
00 1.06
01 1.06
02 1.06
03 1.06
04 1.06
05 1.06
06 1.06
07 1.06
08 1.06
09 1.06
10 1.06
11 1.06
12 1.06
13 1.06
14 1.06
15 1.06
16 1.06
17 1.06
18 1.06
19 1.06
20 1.06
21 1.06
22 1.06
23 1.06
00 2.06
01 2.06
02 2.06
03 2.06
04 2.06
05 2.06
06 2.06
07 2.06
08 2.06
09 2.06
10 2.06
11 2.06
12 2.06
13 2.06
14 2.06
15 2.06
16 2.06
17 2.06
18 2.06
19 2.06
20 2.06
21 2.06
22 2.06
23 2.06
00 3.06
01 3.06
02 3.06
03 3.06
04 3.06
05 3.06
06 3.06
07 3.06
08 3.06
09 3.06
10 3.06
11 3.06
12 3.06
13 3.06
14 3.06
15 3.06
16 3.06
17 3.06
18 3.06
19 3.06
20 3.06
21 3.06
22 3.06
23 3.06
Ветер
(напр.,м/с)
Видим. Явления Облачность Т
(С)
Тd
(С)
f
(%)
Тe
(С)
Тes
(С)
Комфортность P
(гПа)
Po
(гПа)
Тmin
(С)
Tmax
(С)
R
(мм)
R24
(мм)
S
(см)
С 4 н/о н/о +10.3 +7.2 81 +8 +8 1033.7 1014.0
С 4 н/о н/о +10.1 +7.2 82 +7 +7 1033.8 1014.1
СВ 4
{7}
н/о н/о +9.6 +7.0 84 +7 +7 1033.8 1014.0
СВ 5 н/о н/о +9.4 +3.9 68 +6 +6 1033.9 1014.1
СВ 5 н/о н/о +9.3 +4.2 70 +6 +6 1034.3 1014.5 9
СВ 5
{8}
н/о н/о +10.3 +5.1 70 +7 +7 1034.3 1014.6 +8.8 44
СВ 6 н/о н/о +12.1 +6.3 68 +10 +10 1034.2 1014.6 94
СВ 5 н/о н/о +13.7 +7.2 65 +12 +12 1034.2 1014.7 145
СВ 6
{8}
н/о н/о +15.6 +6.7 55 +14 +14 1033.8 1014.4 193
СВ 6 н/о н/о +17.1 +4.0 42 +16 +16 1033.4 1014.1 232
СВ 7 н/о н/о +18.1 +3.3 37 +17 +17 1032.9 1013.7 258
СВ 5
{10}
н/о н/о +19.0 +3.7 36 +19 +19 1032.4 1013.3 269
СВ 6 н/о н/о +20.0 +3.2 33 +20 +20 1031.7 1012.6 268
СВ 6 н/о н/о +20.4 +3.0 32 +21 +21 комфорт 1031.2 1012.2 252
СВ 5
{10}
н/о н/о +20.7 +3.0 31 +21 +21 комфорт 1030.7 1011.7 222
СВ 6
{10}
н/о н/о +20.4 +1.8 29 +20 +20 1030.3 1011.3 181
СВ 6 н/о н/о +19.9 +1.7 30 +20 +20 1030.0 1010.9 132
СВ 5
{10}
н/о н/о +19.3 +1.0 29 +19 +19 1029.6 1010.5 +20.7 81
СВ 5 н/о н/о +18.1 +0.9 31 +18 +18 1029.5 1010.4 34
СВ 4 н/о н/о +16.0 +1.3 37 +15 +15 1029.8 1010.5 5
СВ 4
{8}
н/о н/о +14.8 +1.8 41 +14 +14 1030.0 1010.6
СВ 3 н/о н/о +12.7 +1.8 47 +12 +12 1030.3 1010.7
СВ 4 н/о н/о +12.9 +1.4 45 +11 +11 1030.3 1010.7
СВ 4
{8}
н/о н/о +11.2 +1.6 52 +9 +9 1030.0 1010.4 242
СВ 4 н/о н/о +10.1 +2.0 57 +8 +8 1030.1 1010.4
СВ 4 н/о н/о +9.5 +2.0 59 +7 +7 1030.0 1010.3
СВ 3
{5}
н/о н/о +7.9 +1.9 66 +5 +5 1029.8 1009.9
В 3 н/о н/о +7.3 +3.0 74 +5 +5 1029.5 1009.7
СВ 2 н/о н/о +8.7 +4.0 72 +7 +7 1029.6 1009.8 9
СВ 3
{5}
н/о н/о +11.0 +4.5 64 +9 +9 1029.5 1009.9 +7.2 44
СВ 3 н/о н/о +13.3 +5.0 57 +12 +12 1029.1 1009.7 94
СВ 4 н/о н/о +15.8 +5.9 52 +15 +15 1028.7 1009.5 146
СВ 4
{6}
н/о н/о +17.5 +5.6 45 +17 +17 1028.4 1009.3 193
СВ 4 н/о н/о +18.9 +3.6 36 +19 +19 1028.0 1009.0 231
СВ 3 н/о н/о +19.9 +3.5 34 +21 +21 комфорт 1027.5 1008.5 256
СВ 5
{9}
н/о н/о +20.6 +3.0 31 +21 +21 комфорт 1026.6 1007.7 265
В 5 н/о н/о +21.0 +3.0 30 +21 +21 комфорт 1026.0 1007.1 263
СВ 5 н/о н/о +21.5 +2.4 28 +21 +21 комфорт 1025.3 1006.4 248
СВ 5
{8}
н/о н/о +22.3 +1.6 25 +22 +22 комфорт 1024.6 1005.8 219
СВ 5 н/о н/о +21.9 +1.3 26 +22 +22 комфорт 1024.1 1005.3 181
СВ 5 н/о н/о +21.5 +1.2 26 +21 +21 комфорт 1023.7 1004.9 131
СВ 4
{9}
н/о н/о +20.6 +2.7 31 +21 +21 комфорт 1023.3 1004.4 +22.3 80
СВ 3 н/о н/о +18.6 +4.3 39 +19 +19 1023.3 1004.3 32
СВ 3 н/о н/о +16.9 +3.1 40 +17 +17 1023.4 1004.3 5
СВ 3
{6}
н/о н/о +15.5 +3.1 43 +15 +15 1023.7 1004.5
СВ 3 н/о н/о +13.5 +3.6 51 +13 +13 1023.9 1004.5
СВ 3 н/о н/о +12.9 +4.1 55 +12 +12 1023.9 1004.5
СВ 2
{6}
н/о н/о +11.0 +4.2 63 +10 +10 1023.9 1004.3 240
СВ 2 н/о н/о +9.7 +2.7 62 +8 +8 1023.9 1004.3
В 2 н/о н/о +10.1 +4.2 67 +9 +9 1023.9 1004.4
В 1
{3}
н/о н/о +8.4 +3.0 69 +8 +8 1023.8 1004.1
В 1 н/о н/о +7.1 +3.1 76 +6 +6 1023.9 1004.1
СВ 2 н/о н/о +9.4 +5.2 75 +8 +8 1023.9 1004.3 9
СВ 3
{5}
н/о н/о +12.8 +5.5 61 +12 +12 1024.0 1004.6 +7.1 44
В 4 н/о н/о +15.3 +4.9 50 +14 +14 1023.9 1004.7 93
В 4 н/о н/о +17.6 +4.8 43 +17 +17 1023.7 1004.6 145
СВ 4
{7}
н/о н/о +19.3 +5.4 40 +20 +20 1023.4 1004.5 192
В 5 н/о н/о +20.7 +3.8 33 +21 +21 комфорт 1023.1 1004.3 229
В 5 н/о н/о +21.6 +1.9 27 +21 +21 комфорт 1022.6 1003.8 254
В 5
{11}
н/о н/о +21.9 +2.2 27 +22 +22 комфорт 1022.2 1003.4 265
В 4 н/о н/о +22.6 +2.7 27 +22 +22 комфорт 1021.6 1002.9 262
СВ 5 н/о н/о +23.0 +3.4 28 +23 +23 комфорт 1021.2 1002.6 246
СВ 5
{10}
н/о н/о +22.9 +3.7 29 +23 +23 комфорт 1021.0 1002.3 216
СВ 6 н/о н/о +22.7 +3.4 28 +23 +23 комфорт 1020.7 1002.0 176
СВ 5 н/о н/о +22.2 +3.3 29 +22 +22 комфорт 1020.2 1001.5 129
СВ 5
{10}
н/о н/о +21.4 +3.1 30 +21 +21 комфорт 1020.3 1001.5 +23.2 0.1 78
СВ 4 н/о н/о +19.9 +3.6 34 +20 +20 1020.4 1001.5 33
СВ 3 н/о н/о +17.7 +3.7 39 +18 +18 1020.9 1001.9 5
СВ 3
{8}
н/о н/о +15.6 +3.6 45 +15 +15 1021.5 1002.3
СВ 5 н/о н/о +15.5 +3.6 45 +14 +14 1021.8 1002.6
СВ 4 н/о н/о +14.5 +3.7 48 +13 +13 1022.2 1002.9
В 3
{8}
н/о н/о +12.8 +3.4 53 +12 +12 1022.4 1003.0 238
В 3 н/о н/о +11.9 +3.6 57 +11 +11 1022.2 1002.8
СВ 2 н/о н/о +10.3 +3.3 62 +9 +9 1022.2 1002.7
СВ 2
{5}
н/о н/о +8.9 +3.5 69 +7 +7 1022.7 1003.1
СВ 2 н/о н/о +8.4 +3.8 73 +7 +7 1022.7 1003.1
СВ 2 н/о н/о +11.0 +5.0 66 +10 +10 1022.9 1003.4 9
СВ 2
{5}
н/о н/о +13.7 +5.4 57 +13 +13 1022.6 1003.3 +8.0 43
СВ 3 н/о н/о +16.1 +5.4 49 +16 +16 1022.5 1003.3 93
СВ 3 н/о н/о +17.6 +5.2 44 +18 +18 1022.3 1003.3 144
СВ 6
{9}
н/о н/о +18.3 +5.0 41 +18 +18 1022.5 1003.5 191
СВ 7 н/о н/о +18.4 +4.4 40 +18 +18 1022.1 1003.2 224
В 6 н/о н/о +19.4 +4.0 36 +19 +19 1021.7 1002.8 254
С 5
{11}
н/о н/о +19.8 +4.4 36 +20 +20 1021.4 1002.6 264
СВ 5 н/о н/о +20.5 +2.6 31 +21 +21 комфорт 1021.2 1002.3 264
СВ 5 н/о н/о +20.7 +1.1 27 +21 +21 комфорт 1020.8 1002.0 247
СВ 6
{10}
н/о н/о +20.9 +1.9 28 +21 +21 комфорт 1020.7 1001.9 219
СВ 6 н/о н/о +21.0 +2.4 29 +21 +21 комфорт 1020.3 1001.5 181
СВ 5 н/о н/о +20.8 +3.6 32 +21 +21 комфорт 1020.2 1001.4 114
СВ 5
{10}
н/о н/о +20.3 +4.1 34 +21 +21 комфорт 1020.2 1001.4 +21.2 81
СВ 4 н/о н/о +18.9 +4.1 38 +19 +19 1020.4 1001.5 32
СВ 3 н/о н/о +17.0 +4.2 43 +17 +17 1021.0 1002.0 4
СВ 3
{9}
н/о н/о +14.8 +4.8 51 +14 +14 1021.6 1002.4
СВ 3 н/о н/о +14.0 +5.2 55 +13 +13 1021.9 1002.6
СВ 3 н/о н/о +12.0 +4.9 62 +11 +11 1022.2 1002.8
СВ 3
{9}
н/о н/о +12.5 +5.5 62 +11 +11 1022.0 1002.7 237
СВ 1 н/о н/о +10.6 +5.1 69 +10 +10 1022.1 1002.6
В 2 н/о н/о +9.7 +5.9 77 +8 +8 1022.3 1002.8
В 2
{4}
н/о н/о +9.8 +5.7 76 +8 +8 1022.2 1002.7
СВ 2 н/о н/о +9.4 +5.9 79 +8 +8 1022.3 1002.7
СВ 2 н/о н/о +11.3 +7.5 77 +10 +10 1022.1 1002.7 9
СВ 4
{5}
н/о н/о +14.3 +6.9 61 +13 +13 1021.9 1002.7 +9.0 45
СВ 5 н/о н/о +16.9 +7.0 52 +16 +16 1022.1 1003.1 93
СВ 5 н/о н/о +18.9 +7.0 46 +19 +19 1022.0 1003.1 141
СВ 5
{8}
н/о н/о +20.5 +7.5 43 +22 +22 комфорт 1021.8 1002.9 189
СВ 6 н/о н/о +21.6 +7.4 40 +23 +23 комфорт 1021.4 1002.7 227
СВ 6
{10}
н/о н/о +22.9 +8.5 40 +24 +24 комфорт 1021.0 1002.3 252
В 6
{10}
н/о н/о +23.6 +8.0 37 +24 +24 комфорт 1020.6 1002.0 263
СВ 5 н/о н/о +24.4 +8.1 35 +25 +25 комфорт 1020.2 1001.6 262
СВ 6 н/о н/о +24.9 +7.9 34 +25 +25 комфорт 1019.8 1001.3 246
СВ 4
{9}
н/о н/о +25.3 +8.5 34 +26 +26 жарко 1019.4 1000.9 218
СВ 5 н/о н/о +25.2 +7.8 33 +25 +25 комфорт 1019.1 1000.6 169
СВ 5 н/о н/о +24.7 +7.2 33 +25 +25 комфорт 1018.8 1000.3 120
СВ 5
{10}
н/о н/о +24.3 +7.0 33 +24 +24 комфорт 1018.7 1000.2 +25.3 0.1 75
СВ 4 н/о н/о +22.9 +6.6 35 +24 +24 комфорт 1018.8 1000.2 41
СВ 3 н/о н/о +20.6 +5.7 38 +22 +22 комфорт 1019.2 1000.4 6
СВ 3
{7}
н/о н/о +17.9 +7.2 50 +18 +18 1019.7 1000.8
СВ 3 н/о н/о +16.8 +5.6 48 +17 +17 1020.2 1001.1
СВ 3 н/о н/о +15.6 +5.4 51 +15 +15 1020.2 1001.0
С 3
{7}
н/о н/о +13.5 +4.5 54 +13 +13 1020.2 1000.9 236
В 1 н/о н/о +12.0 +4.8 61 +12 +12 1020.0 1000.6
штиль 0 н/о н/о +10.9 +5.0 67 +10 +10 1019.6 1000.2
штиль 0
{2}
н/о н/о +10.9 +5.7 70 +10 +10 1019.4 1000.0
ЮВ 1 н/о н/о +10.0 +6.0 76 +10 +10 1019.6 1000.2
штиль 0 н/о н/о +11.6 +7.4 75 +11 +11 1019.6 1000.3 10
штиль 0
{2}
н/о н/о +15.7 +8.1 61 +16 +16 1019.2 1000.2 +10.0 45
С 1 н/о н/о +18.4 +8.8 54 +20 +20 1019.0 1000.1 74
С 2 н/о н/о +20.4 +8.4 46 +22 +22 комфорт 1018.7 999.9 112
С 2
{4}
н/о н/о +23.2 +8.6 39 +24 +24 комфорт 1018.3 999.7 190
СВ 3 н/о н/о +24.5 +7.7 34 +25 +25 комфорт 1017.7 999.2 226
СЗ 3 н/о н/о +25.2 +7.3 32 +25 +25 комфорт 1017.1 998.6 250
В 2
{5}
н/о н/о +26.3 +6.6 28 +26 +26 жарко 1016.4 998.0 259
СВ 2 н/о н/о +26.7 +6.7 28 +26 +26 жарко 1015.9 997.5 245
З 1 н/о н/о +27.2 +5.8 26 +26 +26 жарко 1015.0 996.7 235
СВ 1
{6}
н/о н/о +26.9 +6.2 27 +26 +26 жарко 1014.4 996.1 196
З 1 н/о н/о +27.0 +5.8 26 +26 +26 жарко 1013.7 995.4 135
СЗ 4 н/о н/о +25.9 +7.8 32 +26 +26 жарко 1013.2 994.9 107
СЗ 6
{11}
н/о н/о +23.6 +7.3 35 +24 +24 комфорт 1013.4 994.9 +27.2 67
СЗ 5 н/о н/о +22.2 +6.4 36 +23 +23 комфорт 1013.5 994.9 32
СЗ 4 н/о н/о +19.6 +5.9 41 +20 +20 1013.5 994.7 5
СЗ 3
{9}
н/о н/о +16.9 +6.4 50 +17 +17 1013.4 994.5
н/о н/о +16.0 +6.8 54 1013.1 994.2
штиль 0 н/о н/о +14.4 +7.1 62 +14 +14 1012.7 993.7
СЗ 2
{9}
н/о н/о +12.5 +7.4 71 +12 +12 1012.3 993.1 219
Ю 1 н/о н/о +11.6 +7.1 74 +12 +12 1011.6 992.4
З 1 н/о н/о +11.8 +7.8 76 +12 +12 1010.6 991.4
З 1
{3}
н/о н/о +11.2 +8.0 81 +11 +11 1010.2 990.9
З 1 н/о н/о +11.4 +8.7 83 +11 +11 1009.8 990.6
З 2 н/о н/о +11.9 +9.4 85 +11 +11 1009.4 990.2 9
З 2
{3}
н/о н/о +14.2 +10.3 77 +14 +14 1008.9 990.0 +10.6 32
З 2 н/о н/о +16.8 +9.2 61 +17 +17 1008.7 989.8 92
З 2 н/о н/о +17.8 +9.0 56 +18 +18 1008.2 989.5 114
З 2
{4}
н/о н/о +19.8 +9.2 50 +21 +21 комфорт 1007.7 989.1 185
З 3 н/о н/о +20.3 +9.3 49 +22 +22 комфорт 1007.1 988.5 200
З 4 н/о н/о +21.5 +8.0 42 +23 +23 комфорт 1006.5 988.0 196
З 3
{7}
н/о н/о +21.0 +7.8 43 +23 +23 комфорт 1005.8 987.3 141
СЗ 2 н/о н/о +21.7 +7.4 40 +23 +23 комфорт 1004.9 986.5 112
ЮЗ 5 н/о н/о +22.4 +6.9 37 +23 +23 комфорт 1004.3 985.9 195
СЗ 3
{7}
н/о н/о +23.6 +4.2 28 +23 +23 комфорт 1003.5 985.1 199
СЗ 4 н/о н/о +23.1 +4.6 30 +23 +23 комфорт 1003.0 984.7 161
С 5 н/о н/о +21.2 +7.9 42 +22 +22 комфорт 1002.7 984.2 103
С 5
{8}
н/о н/о +19.7 +8.8 49 +21 +21 комфорт 1002.7 984.2 +23.6 39
С 4 н/о н/о +18.5 +7.3 48 +19 +19 1002.6 984.0 19
С 5 н/о н/о +16.9 +8.2 56 +16 +16 1002.7 984.0 6
СЗ 4
{8}
н/о н/о +15.2 +8.0 62 +14 +14 1002.8 984.0
СЗ 4 н/о н/о +14.4 +9.5 72 +13 +13 1002.6 983.7
С 3 н/о н/о +13.6 +9.7 77 +12 +12 1002.0 983.1
Местоположение метеостанции Эрнаж (Бельгия): широта 50.67 долгота 4.68 высота над уровнем моря 158 м.
В архиве по умолчанию представлена погода в Эрнаже за последнюю неделю. Архивные данные за месяц целиком и за предыдущие месяцы, начиная с января 2011 года, Вы можете получить, выбрав интересующий диапазон дат из раскрывающегося списка и нажав кнопку "Найти!".
*Определитесь, кто Вы:
Внимание! Время в таблицах - всемирное. Для получения местного времени необходимо прибавить поправку, которая равна 1 ч.
Смотрите также архив погоды в соседних городах и на ближайших метеорологических станциях:
Партнеры нашего сайта:      
Пояснения к столбцам:
  • Ветер - указаны скорость ветра в м/с - средняя за 10 мин, порывы в срок и между сроками (в фигурных скобках) и направление, откуда дует ветер: С - северный,
  • СВ - северо-восточный, В - восточный, ЮВ - юго-восточный, Ю - южный, ЮЗ - юго-западный, З - западный, СЗ - северо-западный.
  • Видимость - горизонтальная дальность видимости в метрах или километрах. При видимости от 1 до 10 км при отсутствии осадков обычно наблюдается дымка, при ухудшении видимости до 1 км и менее - туман. В сухую погоду видимость может ухудшаться дымом, пылью или мглою.
  • Явления - указаны атмосферные явления, наблюдавшиеся в срок или в последний час перед сроком; фигурными скобками обозначены явления, наблюдавшиеся между сроками (за 1-3 часа до срока); квадратными скобками обозначены град или гололедные отложения с указанием их диаметра в мм.
  • Облачность - указаны через наклонную черту общая и нижняя облачность в баллах и высота нижней границы облаков в метрах; квадратными скобками обозначены формы облаков: Ci - перистые, Cs - перисто-слоистые, Cc - перисто-кучевые, Ac - высококучевые, As - высокослоистые, Sc - слоисто-кучевые, Ns - слоисто-дождевые, Cu - кучевые, Cb - кучево-дождевые. Подробнее классификацию облаков см. в Атласе облаков (PDF).
  • T - Температура воздуха - температура, измеренная на высоте 2 м над землей.
  • Td - Температура точки росы - температура, при понижении до которой содержащийся в воздухе водяной пар достигнет насыщения.
  • f - Относительная влажность воздуха - влажноcть воздуха, измеренная на высоте 2 м над землей.
  • Te - Эффективная температура - температура, которую ощущает одетый по сезону человек в тени. Характеристика душности погоды. При расчете учитывается влияние влажности воздуха и скорости ветра на теплоощущения человека.
  • Tes - Эффективная температура на солнце - температура, которую ощущает человек, с поправкой на солнечный нагрев. Характеристика знойности погоды. Зависит от высоты солнца над горизонтом, облачности и скорости ветра. Ночью, в пасмурную погоду, а также при ветре 12 м/с и более поправка равна нулю.
  • P - Атмосферное давление - приведенное к уровню моря атмосферное давление.
  • Po - Атмосферное давление - измеренное на уровне метеостанции атмосферное давление.
  • Tmin - Минимальная температура - минимум температуры воздуха на высоте 2 м над землей.
  • Tmax - Максимальная температура - максимум температуры воздуха на высоте 2 м над землей.
  • R - Количество осадков - Количество выпавших осадков за период времени, мм. При наведении курсора мыши на число - период времени, за который выпало указанное количество осадков.
  • R24 - Количество осадков - Количество выпавших осадков за 24 часа, мм.
  • S - Снежный покров - Высота снежного покрова, см. При наведении курсора мыши на число - состояние снежного покрова и степень покрытия местности в баллах.